Terminal Aerodrome Forecast
Issued by NWS Boston, MA

Home | Current Version | Previous Version | Text Only | Print | Product List | Glossary On
Versions: 1 2 3 4 5 6 7 8 9 10 11 12 13 14 15 16 17 18 19 20 21 22 23 24 25 26 27 28
489
FTUS41 KBOX 222105 AAA
TAFORH
TAF AMD
KORH 222105Z 2221/2318 16008KT P6SM -RA OVC012
     FM222230 17007KT 5SM -SHRA BR OVC008
     FM230400 21005KT 3/4SM BR VCSH OVC003
     FM230600 25005KT 3/4SM BR OVC003
     FM230900 30005KT 2SM BR BKN003
     FM231300 35005KT P6SM FEW005 SCT030
     FM231400 36005KT P6SM SCT030 SCT200=

USA.gov is the U.S. government's official web portal to all federal, state and local government web resources and services.